sat.trackr.live / text

‹ back to catalog

DAMPE

NORAD 41173 · 2015-078A

PAYLOAD ACTIVE UNKNOWN

§ Identity

Operator
Country
PRC
Launch date
2015-12-17
Launch site
JSC
Launch vehicle
Mass (kg)
RCS (m²)
1.58

Purposes: science

External: N2YO · Heavens-Above · Gunter

§ Orbital elements

Epoch: 2026-09-20T04:57:59.622048Z

Period
94.06 min
Inclination
97.4606°
Eccentricity
0.0013679
Mean motion
15.30986855 rev/d
Perigee alt
463.5 km
Apogee alt
482.2 km
Semi-major
6,851.0 km
B*
3.3107e-5
RAAN
269.1755°
Arg perigee
96.8101°
Mean anomaly
263.4697°
Rev number
59,908

§ Raw data

DAMPE1 41173U 15078A   26263.20694007  .00000915  00000+0  33107-4 0  99962 41173  97.4606 269.1755 0013679  96.8101 263.4697 15.30986855599084

JSON: /api/v1/satellites/41173 · /tle

For live sub-satellite position, see the globe view (requires WebGL).

§ Visibility from observer

Set your observer location to see the next 7 days of passes ≥ 10°. The values pass through the URL so the page stays shareable.

No JS? Fill the form by hand. The geolocation button needs JavaScript.

§ Radio — SatNOGS DB

ModeDescriptionDownlinkUplink
FM S-band telemetry 2.227 GHz

1 transmitter · refreshed weekly from db.satnogs.org